Bangor, ME

9:27 AM EST on December 17, 2017 (GMT -0500)
Bangor International

Weather History for KBGR - February, 2013

Change the Weather History Date:

Saturday, February 2, 2013

  Actual Average Record
Temperature  
Mean Temperature 14 °F 18 °F  
Max Temperature 22 °F 28 °F 54 °F (1976)
Min Temperature 6 °F 7 °F -30 °F (1962)
Degree Days  
Heating Degree Days 51 47  
Month to date heating degree days 96 94  
Since 1 July heating degree days 4312 4501  
Cooling Degree Days 0 0  
Month to date cooling degree days 0 0  
Year to date cooling degree days 0 0  
Moisture  
Dew Point 1 °F    
Average Humidity 55    
Maximum Humidity 73    
Minimum Humidity 36    
Precipitation  
Precipitation 0.00 in 0.09 in 1.52 in (1981)
Month to date precipitation 0.00 0.18  
Year to date precipitation 0.87 3.07  
Snow  
Snow 0.00 in 0.60 in 12.30 in (2015)
Month to date snowfall 0.0 1.2  
Since 1 July snowfall 25.6 37.2  
Snow Depth 0.00 in    
Sea Level Pressure  
Sea Level Pressure 30.11 in    
Wind  
Wind Speed 4 mph (WSW)    
Max Wind Speed 12 mph    
Max Gust Speed 14 mph    
Visibility 10 miles    
Events      
T = Trace of Precipitation, MM = Missing Value Source: NWS Daily Summary

Daily Weather History Graph

Daily Weather History Graph

Search for Another Location

Airport or City:

Trip Planner

Search our weather history database for the weather conditions in past years. The results will help you decide how hot, cold, wet, or windy it might be!

Date:

Astronomy

Feb. 02, 2013 Rise Set
Actual Time 6:53 AM EST 4:45 PM EST
Civil Twilight 6:22 AM EST 5:16 PM EST
Nautical Twilight 5:47 AM EST 5:51 PM EST
Astronomical Twilight 5:12 AM EST 6:25 PM EST
Moon No Moon Rise 9:41 AM EST (2/2)
Length of Visible Light 10h 54m
Length of Day
9h 52m
Waning Gibbous, 60% of the Moon is Illuminated
Feb 2
Waning Gibbous
Feb 3
Last Quarter
Feb 10
New
Feb 17
First Quarter
Feb 25
Full

Hourly Weather History & Observations

Time (EST) Temp. Windchill Dew Point Humidity Pressure Visibility Wind Dir Wind Speed Gust Speed Precip Events Conditions
12:53 AM 9.0 °F -2.2 °F -0.9 °F 64% 30.01 in 10.0 mi WNW 6.9 mph - N/A   Partly Cloudy
1:53 AM 9.0 °F -3.2 °F -2.9 °F 59% 30.04 in 10.0 mi WNW 8.1 mph - N/A   Partly Cloudy
2:53 AM 8.1 °F -0.5 °F -2.9 °F 61% 30.05 in 10.0 mi WNW 4.6 mph - N/A   Clear
3:53 AM 8.1 °F -0.5 °F -2.9 °F 61% 30.08 in 10.0 mi WNW 4.6 mph - N/A   Clear
4:53 AM 7.0 °F 0.1 °F -2.0 °F 67% 30.11 in 10.0 mi North 3.5 mph - N/A   Clear
5:53 AM 7.0 °F 0.1 °F -2.9 °F 64% 30.13 in 10.0 mi WNW 3.5 mph - N/A   Scattered Clouds
6:53 AM 7.0 °F - -2.9 °F 64% 30.16 in 10.0 mi Calm Calm - N/A   Mostly Cloudy
7:53 AM 9.0 °F - -2.9 °F 59% 30.19 in 10.0 mi Calm Calm - N/A   Mostly Cloudy
8:53 AM 10.0 °F - -4.0 °F 53% 30.19 in 10.0 mi Calm Calm - N/A   Mostly Cloudy
9:53 AM 12.0 °F - -4.0 °F 49% 30.19 in 10.0 mi Calm Calm - N/A   Mostly Cloudy
10:53 AM 15.1 °F 7.7 °F -2.9 °F 45% 30.17 in 10.0 mi SW 4.6 mph - N/A   Mostly Cloudy
11:53 AM 18.0 °F 8.7 °F -0.9 °F 44% 30.13 in 10.0 mi SSW 6.9 mph - N/A   Partly Cloudy
12:53 PM 19.9 °F 13.4 °F -2.0 °F 38% 30.12 in 10.0 mi Variable 4.6 mph - N/A   Scattered Clouds
1:53 PM 21.9 °F 15.7 °F -2.0 °F 35% 30.11 in 10.0 mi WSW 4.6 mph - N/A   Scattered Clouds
2:53 PM 21.2 °F 14.9 °F -2.2 °F 36% 30.09 in 10.0 mi SW 4.6 mph - N/A   Overcast
3:53 PM 21.9 °F - -2.0 °F 35% 30.10 in 10.0 mi Calm Calm - N/A   Overcast
4:53 PM 21.9 °F - 1.0 °F 40% 30.09 in 10.0 mi Calm Calm - N/A   Overcast
5:53 PM 21.0 °F - 1.9 °F 44% 30.10 in 10.0 mi Calm Calm - N/A   Overcast
6:53 PM 21.0 °F 14.6 °F 6.1 °F 53% 30.10 in 10.0 mi SSW 4.6 mph - N/A   Overcast
7:53 PM 19.0 °F - 7.0 °F 59% 30.10 in 10.0 mi Calm Calm - N/A   Mostly Cloudy
8:53 PM 18.0 °F - 9.0 °F 68% 30.10 in 10.0 mi Calm Calm - N/A   Overcast
9:53 PM 19.9 °F 14.9 °F 10.9 °F 68% 30.09 in 10.0 mi SSE 3.5 mph - N/A   Overcast
10:53 PM 19.9 °F 14.9 °F 12.0 °F 71% 30.08 in 10.0 mi ESE 3.5 mph - N/A   Overcast
11:53 PM 21.0 °F 16.2 °F 10.9 °F 65% 30.07 in 10.0 mi SSE 3.5 mph - N/A   Overcast